Location: Unspecified
(0.0000°N, 0.0000°E)
Time: 05:54:37
(UTC+00:00)

Vanguard 3 - All Passes

Search period start: 22 August 2014 00:00
Search period end: 01 September 2014 00:00
Orbit: 508 x 3278 km, 33.3° (Epoch: 20 August)

Date Brightness Start Highest point End Pass type
(mag) Time Alt. Az. Time Alt. Az. Time Alt. Az.
22 Aug - 03:08:18 10° WNW 03:12:07 55° SSW 03:17:36 10° SE visible
22 Aug - 05:23:22 10° SW 05:25:58 12° SSW 05:29:04 10° S visible
22 Aug - 09:54:38 10° SSW 10:04:03 18° SSE 10:15:16 10° ESE daylight
22 Aug - 12:06:41 10° SW 12:23:47 44° SSE 12:41:26 10° E daylight
22 Aug - 14:21:35 10° SW 14:42:00 88° NW 14:58:08 10° NE daylight
22 Aug - 16:42:02 10° W 16:58:25 36° NW 17:09:52 10° NNE daylight
23 Aug - 01:57:10 10° NW 02:00:41 49° NE 02:04:56 10° ESE night (unlit)
23 Aug - 04:09:49 10° WSW 04:13:01 18° SSW 04:17:13 10° SSE visible
23 Aug - 08:44:33 10° S 08:48:08 11° SSE 08:52:06 10° SSE daylight
23 Aug - 10:54:15 10° SSW 11:08:05 30° SSE 11:24:15 10° E daylight
23 Aug - 13:07:23 10° SW 13:26:43 69° SE 13:44:41 10° ENE daylight
23 Aug - 15:24:42 10° WSW 15:44:05 56° NW 15:58:27 10° NE daylight
23 Aug - 17:50:27 10° WNW 18:00:28 18° NNW 18:08:08 10° N daylight
24 Aug - 00:46:51 10° N 00:49:14 16° NNE 00:51:36 10° ENE night (unlit)
24 Aug - 02:57:21 10° W 03:00:49 33° SSW 03:05:23 10° SE visible
24 Aug - 09:42:44 10° SSW 09:52:28 20° SSE 10:04:26 10° ESE daylight
24 Aug - 11:54:14 10° SW 12:11:15 50° SE 12:29:45 10° ENE daylight
24 Aug - 14:09:06 10° WSW 14:29:12 78° NW 14:46:05 10° NE daylight
24 Aug - 16:30:15 10° W 16:46:08 32° NW 16:57:49 10° NNE daylight
25 Aug - 01:45:38 10° NW 01:49:17 84° NE 01:53:25 10° SE night (unlit)
25 Aug - 04:00:37 10° SW 04:01:54 11° SSW 04:03:18 10° S visible
25 Aug - 08:33:16 10° S 08:36:59 11° SSE 08:41:09 10° SE daylight
25 Aug - 10:42:00 10° SSW 10:55:53 34° SSE 11:12:51 10° E daylight
25 Aug - 12:54:56 10° SW 13:13:55 78° SE 13:32:39 10° ENE daylight
25 Aug - 15:12:33 10° WSW 15:31:28 49° NW 15:46:19 10° NE daylight
25 Aug - 17:39:33 10° WNW 17:48:46 17° NNW 17:56:06 10° N daylight
26 Aug - 00:34:30 10° NNW 00:37:53 26° NNE 00:41:00 10° E night (unlit)
26 Aug - 02:46:42 10° W 02:49:34 20° SSW 02:52:58 10° SSE night (unlit)
26 Aug - 09:30:43 10° SSW 09:40:43 22° SSE 09:53:27 10° ESE daylight
26 Aug - 11:41:53 10° SW 11:58:35 57° SE 12:17:49 10° ENE daylight
26 Aug - 13:56:49 10° WSW 14:16:23 70° NW 14:33:53 10° NE daylight
26 Aug - 16:18:43 10° W 16:33:57 28° NNW 16:45:42 10° NNE daylight
26 Aug - 23:24:20 10° N 23:25:54 12° NNE 23:27:20 10° NE night (unlit)
27 Aug - 01:34:16 10° WNW 01:37:55 54° SW 01:41:45 10° SE night (unlit)
27 Aug - 08:21:26 10° S 08:25:43 12° SSE 08:30:38 10° SE daylight
27 Aug - 10:29:48 10° SSW 10:43:32 39° SE 11:01:11 10° E daylight
27 Aug - 12:42:38 10° SW 13:01:03 87° SE 13:20:25 10° NE daylight
27 Aug - 15:00:38 10° W 15:18:54 43° NW 15:34:05 10° NNE daylight
27 Aug - 17:28:47 10° NW 17:37:13 15° NNW 17:44:09 10° N daylight
28 Aug - 00:22:27 10° NW 00:26:33 44° NNE 00:30:03 10° ESE night (unlit)
28 Aug - 02:36:43 10° SW 02:38:18 12° SSW 02:39:59 10° S night (unlit)
28 Aug - 09:18:40 10° SSW 09:28:48 24° SE 09:42:15 10° E daylight
28 Aug - 11:29:39 10° SW 11:45:51 64° SE 12:05:40 10° ENE daylight
28 Aug - 13:44:43 10° WSW 14:03:36 61° NW 14:21:33 10° NE daylight
28 Aug - 16:07:25 10° WNW 16:21:55 25° NNW 16:33:35 10° NNE daylight
28 Aug - 23:10:58 10° NNW 23:14:42 19° NNE 23:17:40 10° ENE night (unlit)
29 Aug - 01:23:05 10° W 01:26:33 31° SW 01:29:56 10° SSE night (unlit)
29 Aug - 08:09:20 10° S 08:14:18 13° SSE 08:20:13 10° SE daylight
29 Aug - 10:17:40 10° SSW 10:31:04 44° SE 10:49:16 10° ENE daylight
29 Aug - 12:30:30 10° WSW 12:48:13 83° NW 13:08:01 10° NE daylight
29 Aug - 14:48:57 10° W 15:06:28 38° NNW 15:21:46 10° NNE daylight
29 Aug - 17:18:03 10° NW 17:25:49 14° NNW 17:32:22 10° N daylight
29 Aug - 21:59:53 10° N 22:02:07 12° NNE 22:04:04 10° NE visible
30 Aug - 00:10:33 10° NW 00:15:13 77° NE 00:18:52 10° ESE night (unlit)
30 Aug - 09:06:38 10° SSW 09:16:45 27° SE 09:30:50 10° E daylight
30 Aug - 11:17:33 10° SW 11:33:05 73° SE 11:53:18 10° ENE daylight
30 Aug - 13:32:51 10° WSW 13:50:54 54° NW 14:09:04 10° NE daylight
30 Aug - 15:56:21 10° WNW 16:10:02 22° NNW 16:21:28 10° NNE daylight
30 Aug - 22:58:18 10° NNW 23:03:29 31° NNE 23:07:09 10° E night (unlit)
31 Aug - 01:12:09 10° W 01:15:08 20° SW 01:17:54 10° SSE night (unlit)
31 Aug - 07:57:10 10° S 08:02:44 15° SSE 08:09:40 10° ESE daylight
31 Aug - 10:05:37 10° SW 10:18:33 50° SE 10:37:07 10° ENE daylight
31 Aug - 12:18:32 10° WSW 12:35:26 74° NW 12:55:26 10° NE daylight
31 Aug - 14:37:32 10° W 14:54:10 33° NNW 15:09:23 10° NNE daylight
31 Aug - 17:07:10 10° NW 17:14:33 14° NNW 17:20:54 10° N daylight
31 Aug - 21:46:02 10° NNW 21:51:01 19° NNE 21:54:42 10° ENE visible
31 Aug - 23:58:47 10° WNW 00:00:15 18° WNW 00:00:00 16° WNW night (unlit)
